Location: Cambrin
(50.5097°N, 2.7408°E)
Time: 03:18:57
(UTC+00:00)

Daily predictions for brighter satellites

Satellite Brightness Start Highest point End
(mag) Time Altitude Azimuth Time Altitude Azimuth Time Altitude Azimuth
Cosmos 2082 Rocket 3.1 00:01:27 10° NW 00:06:28 34° WSW 00:09:02 23° SSW
Cosmos 468 4.5 00:03:47 26° SSW 00:06:52 85° ESE 00:12:12 10° NNE
COSMOS 2455 4.3 00:04:46 16° SE 00:07:43 23° ESE 00:12:15 10° ENE
MetOp-A 3.6 00:06:33 32° SSW 00:08:01 51° WSW 00:11:45 10° NNW
Nadezhda 1 Rocket 4.1 00:04:29 23° SSW 00:08:29 69° WNW 00:14:43 10° N
Cosmos 1869 3.8 00:08:40 10° N 00:11:58 42° ENE 00:13:40 23° SE
Cosmos 2278 Rocket 3.4 00:07:07 10° WSW 00:12:25 39° NW 00:17:44 10° NNE
Timation 2 Rocket 4.5 00:08:19 13° SW 00:13:58 61° NW 00:20:33 10° NNE
CZ-4C R/B 4.2 00:12:05 10° NNE 00:15:27 34° E 00:16:54 24° SE
Cosmos 1356 Rocket 3.7 00:12:09 10° N 00:16:07 57° ENE 00:18:24 23° SE
SL-8 R/B 3.9 00:15:45 24° SW 00:18:16 45° SSE 00:22:49 10° E
Cosmos 1452 Rocket 4.0 00:13:18 10° NW 00:18:19 46° WSW 00:20:54 26° SSW
Cosmos 1992 Rocket 4.1 00:13:14 10° NNW 00:18:27 74° ENE 00:22:24 18° SSE
NOSS 2-1 (E) 4.2 00:18:47 10° WSW 00:22:06 36° NW 00:25:00 10° NNE
USA 308 3.9 00:23:07 21° SE 00:23:14 21° SE 00:26:23 10° E
Cosmos 1908 Rocket 3.9 00:18:52 10° N 00:23:16 60° ENE 00:26:03 22° SSE
NOSS 3-1 (C) 3.2 00:22:31 27° S 00:24:48 50° ESE 00:30:11 10° NE
Cosmos 1174 4.2 00:30:24 18° WSW 00:33:01 50° NW 00:36:18 10° NNE
CZ-3B R/B 4.5 00:28:33 21° SSW 00:33:39 62° SE 01:04:54 10° ENE
COSMOS 2406 3.7 00:28:44 10° NW 00:34:04 43° WSW 00:37:01 24° SSW
Cosmos 2341 Rocket 4.0 00:28:00 10° NNW 00:34:15 75° W 00:38:22 22° S
SL-8 Rocket 4.0 00:31:50 10° NNW 00:37:57 68° W 00:41:58 22° S
Cosmos 1782 Rocket 4.3 00:37:22 10° N 00:41:39 48° ENE 00:45:03 15° SE
SL-4 R/B 2.4 00:42:23 28° SE 00:42:23 28° SE 00:45:05 10° E
Cosmos 1943 Rocket 4.3 00:43:53 10° W 00:48:12 22° NW 00:52:32 10° NNE
Cosmos 2297 3.8 00:45:21 23° SSW 00:48:58 70° ESE 00:54:41 10° NNE
DELTA 2 DEB (DPAF) 3.7 00:48:35 10° NNE 00:52:07 64° ESE 00:53:47 28° S
Lacrosse 4 Rocket 1.5 00:48:10 10° NNW 00:52:23 77° NE 00:56:30 10° SE
USA 59 Rocket 2.0 00:51:38 10° WNW 00:53:36 16° NNW 00:55:31 10° NNE
Cosmos 2369 Rocket 2.1 00:50:46 22° SSW 00:54:25 85° ESE 01:00:04 10° NNE
BREEZE-M DEB (TANK) 4.3 00:29:35 10° W 00:54:44 78° SSW 00:59:32 10° ESE
USA 290 2.3 00:53:13 10° NNW 00:56:16 52° WSW 00:57:15 35° SSW
CZ-2C R/B 3.8 00:55:17 19° SW 00:57:53 28° W 01:02:22 10° NW
ADEOS Rocket 4.0 00:54:58 10° NNE 01:00:55 39° E 01:05:49 12° SSE
Cosmos 2228 Rocket 3.8 00:59:27 21° SW 01:01:59 43° WNW 01:06:13 10° N
Geosat 4.1 01:02:45 10° NNE 01:07:45 70° NW 01:11:26 18° SW
Lacrosse 5 rocket 3.2 01:04:42 10° WNW 01:07:46 27° N 01:10:45 10° ENE
USA 276 1.7 01:09:04 26° WSW 01:10:29 69° S 01:13:29 10° E
Cosmos 1818 3.8 01:09:43 21° SSW 01:13:16 61° SE 01:18:39 10° NE
In-Cosmos 22 Rocket 4.4 01:09:23 18° S 01:13:23 68° E 01:18:58 10° NNE
Cosmos 2239 Rocket 4.5 01:09:57 10° N 01:16:12 88° W 01:21:32 14° S
Cosmos 1300 Rocket 3.6 01:12:05 10° NNW 01:16:23 64° W 01:19:07 21° S
Cosmos 1315 Rocket 4.4 01:14:54 10° NW 01:17:45 20° W 01:19:10 17° WSW
ARIANE 6 FM1 Upper Stage 2.7 01:16:12 18° SW 01:19:12 75° NW 01:23:19 10° NE
Meteor 2-5 Rocket 4.5 01:16:25 17° SW 01:20:37 45° WNW 01:26:16 10° N
CENTAUR R/B 4.2 01:19:27 10° NW 01:26:56 50° NNE 01:35:47 10° ESE
Cosmos 1703 Rocket 4.1 01:25:41 20° SW 01:28:27 45° WNW 01:32:41 10° N
Cosmos 2181 Rocket 4.4 01:25:44 18° SSW 01:30:28 56° WNW 01:36:46 10° N
Cosmos 1934 Rocket 4.2 01:24:54 10° N 01:31:13 75° E 01:37:33 10° SSE
ATLAS 5 CENTAUR R/B 2.0 01:30:58 13° WSW 01:33:20 34° NW 01:36:19 10° NNE
Nadezhda 3 Rocket 4.0 01:29:57 17° S 01:34:56 86° W 01:41:15 10° N
Cosmos 546 4.5 01:32:37 10° W 01:36:23 67° SSW 01:40:09 10° ESE
Meteor 1-21 Rocket 4.5 01:32:42 15° S 01:37:41 74° E 01:43:37 10° NNE
PSLV R/B 4.0 01:35:42 10° N 01:39:30 58° WNW 01:42:06 19° SW
SeaSat 1 4.1 01:35:19 10° ESE 01:39:45 36° NE 01:44:13 10° NNW
Cosmos 2263 4.5 01:35:20 16° SW 01:39:54 63° WNW 01:45:36 10° NNE
Cosmos 407 Rocket 4.4 01:37:55 11° S 01:42:20 39° ESE 01:47:04 10° NE
Nimbus 7 Rocket 4.4 01:36:39 10° NNE 01:42:37 85° ESE 01:47:36 15° SSW
ACS3 Solar Sail 2.9 01:38:29 10° N 01:43:19 30° WNW 01:48:09 10° WSW
SJ 16-02 2.7 01:39:47 10° SSE 01:43:29 30° ESE 01:47:11 10° NE
Cosmos 921 Rocket 3.3 01:41:10 16° S 01:44:23 59° ESE 01:48:31 10° NNE
USA 308 2.6 01:41:52 17° WSW 01:44:45 77° SSE 01:49:00 10° ENE
Spot 1 4.5 01:42:09 10° NNE 01:47:09 71° WNW 01:51:01 16° SSW
IDEFIX/ARIANE 42P 2.6 01:47:22 10° NNE 01:52:39 89° WNW 01:57:12 14° SSW
COSMOS 2455 2.9 01:47:52 15° SW 01:52:59 81° NW 01:59:04 10° NE
Cosmos 540 Rocket 3.5 01:48:35 10° NNW 01:53:42 83° ENE 01:58:47 10° SSE
ADEOS II 4.1 01:56:02 10° NE 02:00:03 22° E 02:04:02 10° SE
SL-8 R/B 3.6 01:55:34 10° W 02:00:18 70° S 02:05:03 10° E
Iridium 82 4.3 02:00:15 19° SSW 02:01:58 47° W 02:04:43 10° N
SL-19 R/B 3.8 01:59:04 10° SSE 02:02:24 73° WSW 02:05:39 10° NNW
Cosmos 2227 Rocket 4.5 01:57:54 10° NNW 02:02:48 29° NE 02:07:39 10° ESE
Meteor 1-11 4.3 02:00:23 11° S 02:05:49 78° E 02:11:31 10° NNE
NOSS 3-1 (A) 3.1 02:01:56 13° SW 02:06:09 81° NW 02:12:03 10° NE
Resurs 1-4 Rocket 3.3 02:05:37 10° NNE 02:10:30 38° E 02:15:22 10° SSE
Okean 1 Rocket 4.0 02:06:32 10° N 02:10:47 48° ENE 02:14:58 10° SSE
NOSS 3-1 (C) 4.2 02:10:57 10° W 02:15:38 41° NNW 02:21:23 10° NE
H-2A R/B 3.4 02:11:09 10° NNE 02:16:00 36° E 02:20:43 10° SSE
Cosmos 1140 Rocket 3.7 02:11:29 13° SW 02:16:01 59° WNW 02:21:05 10° NNE
Cosmos 1656 4.1 02:11:03 10° S 02:16:21 55° ESE 02:21:46 10° NE
Cosmos 1346 Rocket 2.9 02:14:57 14° SSW 02:17:58 52° WNW 02:21:33 10° N
Cosmos 1605 Rocket 4.0 02:12:34 10° N 02:18:55 87° W 02:25:09 10° S
SL-4 R/B 1.2 02:16:11 10° WSW 02:19:20 87° NNW 02:22:27 10° ENE
COSMOS 2441 4.5 02:15:31 10° NNE 02:20:25 79° ESE 02:25:18 10° SSW
H-2A R/B 4.1 02:17:46 10° SE 02:21:17 34° ENE 02:24:52 10° N
Cosmos 1763 Rocket 3.6 02:20:31 10° NNW 02:25:25 51° WSW 02:30:16 10° S
Cosmos 371 Rocket 3.3 02:23:01 11° SSW 02:27:42 83° WNW 02:32:34 10° NNE
Lacrosse 4 Rocket 3.2 02:27:13 10° WNW 02:29:34 15° WSW 02:31:50 10° SW
Cosmos 304 Rocket 3.9 02:25:25 11° SSW 02:29:59 71° WNW 02:34:47 10° NNE
Cosmos 2297 Rocket 2.3 02:27:55 10° NNW 02:33:38 83° ENE 02:39:18 10° SSE
NOSS 2-2 (D) 3.3 02:33:43 10° NW 02:37:17 86° SW 02:42:04 10° SE
Cosmos 2369 Rocket 3.9 02:34:39 10° W 02:39:08 24° NW 02:43:40 10° NNE
Cosmos 1025 Rocket 3.0 02:35:20 10° S 02:39:41 86° W 02:44:05 10° N
FENGYUN 3A 4.1 02:35:51 10° N 02:41:02 50° WNW 02:46:10 10° SW
MOZ.5/SAFIR/RUBIN 5/SL-8 3.9 02:37:31 10° S 02:42:00 53° W 02:46:33 10° NNW
USA 276 1.9 02:40:16 10° W 02:43:13 76° S 02:46:17 10° ESE
CZ-2D R/B 2.6 02:37:55 10° NNE 02:43:21 63° ESE 02:48:42 10° S
Lacrosse 5 rocket 2.2 02:41:30 10° NW 02:44:51 44° NNE 02:48:06 10° E
ADEOS Rocket 3.7 02:40:27 10° N 02:46:32 44° WNW 02:52:02 10° SW
ALOS 2.4 02:48:15 10° NNE 02:52:51 75° ESE 02:57:23 10° S
DMSP B5D2-2 4.4 02:47:57 10° S 02:53:03 51° W 02:58:12 10° NNW
NOSS 2-2 (C) 4.1 02:49:55 10° WNW 02:53:23 34° SW 02:57:57 10° S
ATLAS 3B R/B 4.2 02:48:27 10° S 02:55:09 35° ESE 03:02:03 10° NE
Cosmos 468 Rocket 4.1 02:51:24 10° NNW 02:56:24 55° WSW 03:01:21 10° S
NPP 4.5 02:51:50 10° N 02:56:49 39° WNW 03:01:47 10° SW
